Belspring, VA

9:40 PM EDT on August 23, 2016 (GMT -0400)
New River Valley

Weather History for KPSK - April, 2013

Change the Weather History Date:

Saturday, April 6, 2013

  Actual Average (KBCB) Record (KBCB)
Temperature  
Mean Temperature 47 °F 48 °F  
Max Temperature 64 °F 60 °F 84 °F (2010)
Min Temperature 30 °F 36 °F 20 °F (1975)
Degree Days  
Heating Degree Days 18 17  
Month to date heating degree days 107  
Since 1 July heating degree days 4882  
Cooling Degree Days 0 0  
Month to date cooling degree days 0  
Year to date cooling degree days 0  
Moisture  
Dew Point 31 °F    
Average Humidity 52    
Maximum Humidity 93    
Minimum Humidity 27    
Precipitation  
Precipitation 0.00 in 0.11 in 0.81 in (1958)
Month to date precipitation 0.69  
Year to date precipitation 10.22  
Snow  
Snow 0.00 in - - ()
Month to date snowfall  
Since 1 July snowfall  
Snow Depth -    
Sea Level Pressure  
Sea Level Pressure 30.18 in    
Wind  
Wind Speed 3 mph (South)    
Max Wind Speed 10 mph    
Max Gust Speed -    
Visibility 10 miles    
Events      
T = Trace of Precipitation, MM = Missing Value Source: NWS Daily Summary

Daily Weather History Graph

Daily Weather History Graph

Search for Another Location

Airport or City:

Trip Planner

Search our weather history database for the weather conditions in past years. The results will help you decide how hot, cold, wet, or windy it might be!

Date:

Astronomy

Apr. 06, 2013 Rise Set
Actual Time 7:00 AM EDT 7:49 PM EDT
Civil Twilight 6:34 AM EDT 8:16 PM EDT
Nautical Twilight 6:03 AM EDT 8:47 PM EDT
Astronomical Twilight 5:30 AM EDT 9:19 PM EDT
Moon 4:38 AM EDT (4/6) 4:21 PM EDT (4/6)
Length of Visible Light 13h 42m
Length of Day
12h 49m
Waning Crescent, 15% of the Moon is Illuminated
Apr 6
Waning Crescent
Apr 10
New
Apr 18
First Quarter
Apr 25
Full
May 2
Last Quarter

Hourly Weather History & Observations

Time (EDT) Temp. Windchill Dew Point Humidity Pressure Visibility Wind Dir Wind Speed Gust Speed Precip Events Conditions
12:15 AM 42.8 °F 39.3 °F 26.6 °F 53% 30.07 in 10.0 mi West 5.8 mph - N/A   Clear
12:35 AM 39.2 °F 37.0 °F 28.4 °F 65% 30.08 in 10.0 mi West 3.5 mph - N/A   Clear
12:55 AM 37.4 °F - 30.2 °F 75% 30.09 in 10.0 mi Calm Calm - N/A   Clear
1:15 AM 35.6 °F - 30.2 °F 81% 30.10 in 10.0 mi Calm Calm - N/A   Clear
1:35 AM 39.2 °F - 28.4 °F 65% 30.10 in 10.0 mi Calm Calm - N/A   Clear
1:55 AM 41.0 °F - 28.4 °F 61% 30.11 in 10.0 mi Calm Calm - N/A   Clear
2:15 AM 37.4 °F 33.8 °F 28.4 °F 70% 30.12 in 10.0 mi SW 4.6 mph - N/A   Clear
2:35 AM 41.0 °F 39.0 °F 28.4 °F 61% 30.12 in 10.0 mi West 3.5 mph - N/A   Clear
2:55 AM 41.0 °F - 28.4 °F 61% 30.12 in 10.0 mi Calm Calm - N/A   Clear
3:15 AM 42.8 °F 41.1 °F 28.4 °F 57% 30.12 in 10.0 mi West 3.5 mph - N/A   Clear
3:35 AM 44.6 °F 43.1 °F 26.6 °F 49% 30.12 in 10.0 mi West 3.5 mph - N/A   Clear
3:55 AM 42.8 °F 41.1 °F 28.4 °F 57% 30.12 in 10.0 mi WNW 3.5 mph - N/A   Clear
4:15 AM 42.8 °F 39.3 °F 28.4 °F 57% 30.13 in 10.0 mi NW 5.8 mph - N/A   Clear
4:35 AM 42.8 °F 40.1 °F 28.4 °F 57% 30.13 in 10.0 mi NW 4.6 mph - N/A   Clear
4:55 AM 37.4 °F - 28.4 °F 70% 30.13 in 10.0 mi Calm Calm - N/A   Clear
5:15 AM 37.4 °F 34.9 °F 28.4 °F 70% 30.14 in 10.0 mi WNW 3.5 mph - N/A   Clear
5:35 AM 33.8 °F - 28.4 °F 81% 30.15 in 10.0 mi Calm Calm - N/A   Clear
5:55 AM 35.6 °F - 28.4 °F 75% 30.15 in 10.0 mi Calm Calm - N/A   Clear
6:15 AM 33.8 °F 30.8 °F 28.4 °F 81% 30.16 in 10.0 mi South 3.5 mph - N/A   Clear
6:35 AM 35.6 °F - 28.4 °F 75% 30.17 in 10.0 mi Calm Calm - N/A   Clear
6:55 AM 32.0 °F 28.7 °F 28.4 °F 87% 30.18 in 10.0 mi SSW 3.5 mph - N/A   Clear
7:15 AM 33.8 °F - 28.4 °F 81% 30.20 in 10.0 mi Calm Calm - N/A   Clear
7:35 AM 30.2 °F - 28.4 °F 93% 30.21 in 10.0 mi Calm Calm - N/A   Clear
7:55 AM 33.8 °F - 30.2 °F 87% 30.22 in 10.0 mi Calm Calm - N/A   Clear
8:15 AM 37.4 °F - 33.8 °F 87% 30.23 in 10.0 mi Calm Calm - N/A   Clear
8:35 AM 39.2 °F - 33.8 °F 81% 30.23 in 10.0 mi Calm Calm - N/A   Clear
8:55 AM 41.0 °F - 33.8 °F 76% 30.24 in 10.0 mi Calm Calm - N/A   Clear
9:15 AM 42.8 °F - 33.8 °F 70% 30.24 in 10.0 mi Calm Calm - N/A   Clear
9:35 AM 44.6 °F - 33.8 °F 66% 30.24 in 7.0 mi Calm Calm - N/A   Clear
9:55 AM 46.4 °F - 33.8 °F 62% 30.24 in 10.0 mi Calm Calm - N/A   Clear
10:15 AM 48.2 °F - 33.8 °F 58% 30.24 in 10.0 mi Calm Calm - N/A   Clear
10:35 AM 50.0 °F - 33.8 °F 54% 30.24 in 10.0 mi Calm Calm - N/A   Clear
10:55 AM 51.8 °F - 33.8 °F 50% 30.25 in 10.0 mi Calm Calm - N/A   Clear
11:15 AM 51.8 °F - 33.8 °F 50% 30.25 in 10.0 mi Calm Calm - N/A   Clear
11:35 AM 53.6 °F - 33.8 °F 47% 30.25 in 10.0 mi Calm Calm - N/A   Clear
11:55 AM 53.6 °F - 33.8 °F 47% 30.25 in 10.0 mi East 3.5 mph - N/A   Clear
12:15 PM 55.4 °F - 32.0 °F 41% 30.24 in 10.0 mi Calm Calm - N/A   Clear
12:35 PM 55.4 °F - 30.2 °F 38% 30.24 in 10.0 mi SW 4.6 mph - N/A   Clear
12:55 PM 57.2 °F - 30.2 °F 36% 30.23 in 10.0 mi East 3.5 mph - N/A   Clear
1:15 PM 57.2 °F - 28.4 °F 33% 30.22 in 10.0 mi Calm Calm - N/A   Clear
1:35 PM 57.2 °F - 30.2 °F 36% 30.22 in 10.0 mi ESE 3.5 mph - N/A   Clear
1:55 PM 60.8 °F - 32.0 °F 34% 30.22 in 10.0 mi SE 4.6 mph - N/A   Clear
2:15 PM 60.8 °F - 30.2 °F 31% 30.21 in 10.0 mi Calm Calm - N/A   Clear
2:35 PM 60.8 °F - 30.2 °F 31% 30.20 in 10.0 mi SSW 6.9 mph - N/A   Clear
2:55 PM 62.6 °F - 32.0 °F 32% 30.19 in 10.0 mi Calm Calm - N/A   Clear
3:15 PM 62.6 °F - 30.2 °F 30% 30.18 in 10.0 mi SSE 3.5 mph - N/A   Clear
3:35 PM 62.6 °F - 30.2 °F 30% 30.18 in 10.0 mi Calm Calm - N/A   Clear
3:55 PM 64.4 °F - 30.2 °F 28% 30.16 in 10.0 mi South 4.6 mph - N/A   Clear
4:15 PM 64.4 °F - 30.2 °F 28% 30.16 in 10.0 mi SSW 9.2 mph - N/A   Clear
4:35 PM 64.4 °F - 30.2 °F 28% 30.15 in 10.0 mi SSW 5.8 mph - N/A   Clear
4:55 PM 62.6 °F - 30.2 °F 30% 30.15 in 10.0 mi SW 6.9 mph - N/A   Clear
5:15 PM 62.6 °F - 28.4 °F 27% 30.16 in 10.0 mi South 8.1 mph - N/A   Clear
5:35 PM 62.6 °F - 28.4 °F 27% 30.16 in 10.0 mi South 5.8 mph - N/A   Clear
5:55 PM 62.6 °F - 28.4 °F 27% 30.16 in 10.0 mi South 5.8 mph - N/A   Clear
6:15 PM 62.6 °F - 30.2 °F 30% 30.16 in 10.0 mi South 6.9 mph - N/A   Clear
6:35 PM 60.8 °F - 30.2 °F 31% 30.17 in 10.0 mi South 10.4 mph - N/A   Clear
6:55 PM 59.0 °F - 30.2 °F 34% 30.18 in 10.0 mi South 8.1 mph - N/A   Clear
7:15 PM 57.2 °F - 30.2 °F 36% 30.18 in 10.0 mi South 5.8 mph - N/A   Clear
7:35 PM 57.2 °F - 30.2 °F 36% 30.18 in 10.0 mi South 4.6 mph - N/A   Clear
7:55 PM 55.4 °F - 30.2 °F 38% 30.18 in 10.0 mi SSE 9.2 mph - N/A   Clear
8:15 PM 55.4 °F - 32.0 °F 41% 30.18 in 10.0 mi SSE 4.6 mph - N/A   Clear
8:35 PM 55.4 °F - 32.0 °F 41% 30.19 in 10.0 mi SSE 3.5 mph - N/A   Clear
8:55 PM 53.6 °F - 32.0 °F 44% 30.20 in 10.0 mi SE 3.5 mph - N/A   Clear
9:15 PM 53.6 °F - 30.2 °F 41% 30.20 in 10.0 mi Calm Calm - N/A   Clear
9:35 PM 53.6 °F - 32.0 °F 44% 30.21 in 10.0 mi Calm Calm - N/A   Clear
9:55 PM 51.8 °F - 33.8 °F 50% 30.20 in 10.0 mi SE 4.6 mph - N/A   Clear
10:15 PM 51.8 °F - 33.8 °F 50% 30.21 in 10.0 mi ESE 5.8 mph - N/A   Clear
10:35 PM 50.0 °F - 33.8 °F 54% 30.21 in 10.0 mi ESE 5.8 mph - N/A   Clear
10:55 PM 51.8 °F - 32.0 °F 47% 30.20 in 10.0 mi ESE 5.8 mph - N/A   Clear
11:15 PM 50.0 °F - 30.2 °F 47% 30.20 in 10.0 mi ESE 6.9 mph - N/A   Clear
11:35 PM 48.2 °F - 32.0 °F 54% 30.21 in 10.0 mi ESE 4.6 mph - N/A   Clear
11:55 PM 48.2 °F - 32.0 °F 54% 30.20 in 10.0 mi Calm Calm - N/A   Clear